Year,Month,Day,Hour,Minute,Value (Times are PST for temperature in C)
2015,10,11,00,00,13.30
2015,10,11,00,01,13.30
2015,10,11,00,02,13.30
2015,10,11,00,03,13.30
2015,10,11,00,04,13.30
2015,10,11,00,05,13.30
2015,10,11,00,06,13.20
2015,10,11,00,07,13.20
2015,10,11,00,08,13.20
2015,10,11,00,09,13.20
2015,10,11,00,10,13.20
2015,10,11,00,11,13.20
2015,10,11,00,12,13.20
2015,10,11,00,13,13.20
2015,10,11,00,14,13.20
2015,10,11,00,15,13.20
2015,10,11,00,16,13.20
2015,10,11,00,17,13.10
2015,10,11,00,18,13.10
2015,10,11,00,19,13.10
2015,10,11,00,20,13.10
2015,10,11,00,21,13.00
2015,10,11,00,22,13.00
2015,10,11,00,23,12.90
2015,10,11,00,24,12.80
2015,10,11,00,25,12.80
2015,10,11,00,26,12.70
2015,10,11,00,27,12.60
2015,10,11,00,28,12.50
2015,10,11,00,29,12.40
2015,10,11,00,30,12.40
2015,10,11,00,31,12.40
2015,10,11,00,32,12.40
2015,10,11,00,33,12.40
2015,10,11,00,34,12.40
2015,10,11,00,35,12.40
2015,10,11,00,36,12.40
2015,10,11,00,37,12.40
2015,10,11,00,38,12.40
2015,10,11,00,39,12.40
2015,10,11,00,40,12.40
2015,10,11,00,41,12.40
2015,10,11,00,42,12.40
2015,10,11,00,43,12.30
2015,10,11,00,44,12.20
2015,10,11,00,45,12.20
2015,10,11,00,46,12.20
2015,10,11,00,47,12.20
2015,10,11,00,48,12.20
2015,10,11,00,49,12.10
2015,10,11,00,50,12.10
2015,10,11,00,51,12.10
2015,10,11,00,52,12.10
2015,10,11,00,53,12.10
2015,10,11,00,54,12.10
2015,10,11,00,55,12.00
2015,10,11,00,56,12.00
2015,10,11,00,57,12.00
2015,10,11,00,58,12.00
2015,10,11,00,59,11.90
2015,10,11,01,00,11.90
2015,10,11,01,01,11.90
2015,10,11,01,02,12.00
2015,10,11,01,03,12.00
2015,10,11,01,04,12.00
2015,10,11,01,05,12.00
2015,10,11,01,06,12.00
2015,10,11,01,07,11.90
2015,10,11,01,08,11.90
2015,10,11,01,09,11.90
2015,10,11,01,10,11.90
2015,10,11,01,11,11.90
2015,10,11,01,12,11.90
2015,10,11,01,13,11.90
2015,10,11,01,14,11.90
2015,10,11,01,15,11.90
2015,10,11,01,16,11.90
2015,10,11,01,17,11.90
2015,10,11,01,18,11.80
2015,10,11,01,19,11.80
2015,10,11,01,20,11.70
2015,10,11,01,21,11.70
2015,10,11,01,22,11.60
2015,10,11,01,23,11.60
2015,10,11,01,24,11.50
2015,10,11,01,25,11.50
2015,10,11,01,26,11.40
2015,10,11,01,27,11.40
2015,10,11,01,28,11.40
2015,10,11,01,29,11.40
2015,10,11,01,30,11.40
2015,10,11,01,31,11.40
2015,10,11,01,32,11.40
2015,10,11,01,33,11.40
2015,10,11,01,34,11.40
2015,10,11,01,35,11.40
2015,10,11,01,36,11.30
2015,10,11,01,37,11.30
2015,10,11,01,38,11.30
2015,10,11,01,39,11.30
2015,10,11,01,40,11.20
2015,10,11,01,41,11.20
2015,10,11,01,42,11.10
2015,10,11,01,43,11.10
2015,10,11,01,44,11.00
2015,10,11,01,45,10.90
2015,10,11,01,46,10.90
2015,10,11,01,47,10.90
2015,10,11,01,48,10.90
2015,10,11,01,49,10.80
2015,10,11,01,50,10.80
2015,10,11,01,51,10.80
2015,10,11,01,52,10.80
2015,10,11,01,53,10.80
2015,10,11,01,54,10.70
2015,10,11,01,55,10.70
2015,10,11,01,56,10.70
2015,10,11,01,57,10.70
2015,10,11,01,58,10.70
2015,10,11,01,59,10.60
2015,10,11,02,00,10.60
2015,10,11,02,01,10.60
2015,10,11,02,02,10.60
2015,10,11,02,03,10.50
2015,10,11,02,04,10.50
2015,10,11,02,05,10.40
2015,10,11,02,06,10.40
2015,10,11,02,07,10.40
2015,10,11,02,08,10.40
2015,10,11,02,09,10.30
2015,10,11,02,10,10.30
2015,10,11,02,11,10.30
2015,10,11,02,12,10.30
2015,10,11,02,13,10.20
2015,10,11,02,14,10.20
2015,10,11,02,15,10.20
2015,10,11,02,16,10.20
2015,10,11,02,17,10.20
2015,10,11,02,18,10.20
2015,10,11,02,19,10.20
2015,10,11,02,20,10.20
2015,10,11,02,21,10.20
2015,10,11,02,22,10.20
2015,10,11,02,23,10.20
2015,10,11,02,24,10.20
2015,10,11,02,25,10.20
2015,10,11,02,26,10.20
2015,10,11,02,27,10.20
2015,10,11,02,28,10.20
2015,10,11,02,29,10.20
2015,10,11,02,30,10.20
2015,10,11,02,31,10.20
2015,10,11,02,32,10.20
2015,10,11,02,33,10.20
2015,10,11,02,34,10.20
2015,10,11,02,35,10.20
2015,10,11,02,36,10.20
2015,10,11,02,37,10.10
2015,10,11,02,38,10.10
2015,10,11,02,39,10.10
2015,10,11,02,40,10.10
2015,10,11,02,41,10.10
2015,10,11,02,42,10.10
2015,10,11,02,43,10.10
2015,10,11,02,44,10.10
2015,10,11,02,45,10.10
2015,10,11,02,46,10.10
2015,10,11,02,47,10.10
2015,10,11,02,48,10.10
2015,10,11,02,49,10.00
2015,10,11,02,50,10.00
2015,10,11,02,51,10.00
2015,10,11,02,52,9.90
2015,10,11,02,53,9.90
2015,10,11,02,54,9.90
2015,10,11,02,55,9.90
2015,10,11,02,56,9.90
2015,10,11,02,57,9.90
2015,10,11,02,58,9.90
2015,10,11,02,59,9.90
2015,10,11,03,00,9.90
2015,10,11,03,01,10.00
2015,10,11,03,02,10.00
2015,10,11,03,03,9.90
2015,10,11,03,04,9.90
2015,10,11,03,05,9.90
2015,10,11,03,06,9.90
2015,10,11,03,07,9.90
2015,10,11,03,08,9.90
2015,10,11,03,09,9.90
2015,10,11,03,10,9.90
2015,10,11,03,11,9.90
2015,10,11,03,12,9.90
2015,10,11,03,13,9.90
2015,10,11,03,14,9.90
2015,10,11,03,15,9.80
2015,10,11,03,16,9.80
2015,10,11,03,17,9.80
2015,10,11,03,18,9.70
2015,10,11,03,19,9.70
2015,10,11,03,20,9.70
2015,10,11,03,21,9.70
2015,10,11,03,22,9.70
2015,10,11,03,23,9.70
2015,10,11,03,24,9.70
2015,10,11,03,25,9.70
2015,10,11,03,26,9.70
2015,10,11,03,27,9.70
2015,10,11,03,28,9.60
2015,10,11,03,29,9.60
2015,10,11,03,30,9.60
2015,10,11,03,31,9.60
2015,10,11,03,32,9.60
2015,10,11,03,33,9.60
2015,10,11,03,34,9.60
2015,10,11,03,35,9.60
2015,10,11,03,36,9.50
2015,10,11,03,37,9.50
2015,10,11,03,38,9.50
2015,10,11,03,39,9.50
2015,10,11,03,40,9.50
2015,10,11,03,41,9.40
2015,10,11,03,42,9.40
2015,10,11,03,43,9.40
2015,10,11,03,44,9.40
2015,10,11,03,45,9.40
2015,10,11,03,46,9.40
2015,10,11,03,47,9.40
2015,10,11,03,48,9.40
2015,10,11,03,49,9.40
2015,10,11,03,50,9.40
2015,10,11,03,51,9.40
2015,10,11,03,52,9.40
2015,10,11,03,53,9.40
2015,10,11,03,54,9.40
2015,10,11,03,55,9.40
2015,10,11,03,56,9.40
2015,10,11,03,57,9.30
2015,10,11,03,58,9.30
2015,10,11,03,59,9.30
2015,10,11,04,00,9.30
2015,10,11,04,01,9.30
2015,10,11,04,02,9.30
2015,10,11,04,03,9.30
2015,10,11,04,04,9.30
2015,10,11,04,05,9.30
2015,10,11,04,06,9.30
2015,10,11,04,07,9.30
2015,10,11,04,08,9.30
2015,10,11,04,09,9.30
2015,10,11,04,10,9.30
2015,10,11,04,11,9.30
2015,10,11,04,12,9.30
2015,10,11,04,13,9.30
2015,10,11,04,14,9.30
2015,10,11,04,15,9.30
2015,10,11,04,16,9.30
2015,10,11,04,17,9.30
2015,10,11,04,18,9.30
2015,10,11,04,19,9.30
2015,10,11,04,20,9.30
2015,10,11,04,21,9.30
2015,10,11,04,22,9.30
2015,10,11,04,23,9.30
2015,10,11,04,24,9.30
2015,10,11,04,25,9.30
2015,10,11,04,26,9.30
2015,10,11,04,27,9.30
2015,10,11,04,28,9.20
2015,10,11,04,29,9.20
2015,10,11,04,30,9.20
2015,10,11,04,31,9.20
2015,10,11,04,32,9.20
2015,10,11,04,33,9.20
2015,10,11,04,34,9.20
2015,10,11,04,35,9.20
2015,10,11,04,36,9.20
2015,10,11,04,37,9.20
2015,10,11,04,38,9.20
2015,10,11,04,39,9.20
2015,10,11,04,40,9.20
2015,10,11,04,41,9.10
2015,10,11,04,42,9.10
2015,10,11,04,43,9.10
2015,10,11,04,44,9.10
2015,10,11,04,45,9.20
2015,10,11,04,46,9.20
2015,10,11,04,47,9.20
2015,10,11,04,48,9.20
2015,10,11,04,49,9.20
2015,10,11,04,50,9.10
2015,10,11,04,51,9.10
2015,10,11,04,52,9.10
2015,10,11,04,53,9.10
2015,10,11,04,54,9.10
2015,10,11,04,55,9.10
2015,10,11,04,56,9.10
2015,10,11,04,57,9.10
2015,10,11,04,58,9.00
2015,10,11,04,59,9.00
2015,10,11,05,00,9.00
2015,10,11,05,01,9.00
2015,10,11,05,02,8.90
2015,10,11,05,03,8.90
2015,10,11,05,04,8.90
2015,10,11,05,05,8.90
2015,10,11,05,06,8.90
2015,10,11,05,07,8.80
2015,10,11,05,08,8.80
2015,10,11,05,09,8.80
2015,10,11,05,10,8.80
2015,10,11,05,11,8.80
2015,10,11,05,12,8.80
2015,10,11,05,13,8.80
2015,10,11,05,14,8.80
2015,10,11,05,15,8.80
2015,10,11,05,16,8.70
2015,10,11,05,17,8.70
2015,10,11,05,18,8.70
2015,10,11,05,19,8.70
2015,10,11,05,20,8.70
2015,10,11,05,21,8.70
2015,10,11,05,22,8.60
2015,10,11,05,23,8.60
2015,10,11,05,24,8.60
2015,10,11,05,25,8.60
2015,10,11,05,26,8.60
2015,10,11,05,27,8.60
2015,10,11,05,28,8.60
2015,10,11,05,29,8.60
2015,10,11,05,30,8.60
2015,10,11,05,31,8.60
2015,10,11,05,32,8.60
2015,10,11,05,33,8.60
2015,10,11,05,34,8.60
2015,10,11,05,35,8.60
2015,10,11,05,36,8.60
2015,10,11,05,37,8.60
2015,10,11,05,38,8.60
2015,10,11,05,39,8.60
2015,10,11,05,40,8.60
2015,10,11,05,41,8.50
2015,10,11,05,42,8.50
2015,10,11,05,43,8.50
2015,10,11,05,44,8.50
2015,10,11,05,45,8.50
2015,10,11,05,46,8.50
2015,10,11,05,47,8.50
2015,10,11,05,48,8.50
2015,10,11,05,49,8.50
2015,10,11,05,50,8.50
2015,10,11,05,51,8.50
2015,10,11,05,52,8.50
2015,10,11,05,53,8.50
2015,10,11,05,54,8.40
2015,10,11,05,55,8.40
2015,10,11,05,56,8.40
2015,10,11,05,57,8.40
2015,10,11,05,58,8.40
2015,10,11,05,59,8.40
2015,10,11,06,00,8.40
2015,10,11,06,01,8.40
2015,10,11,06,02,8.40
2015,10,11,06,03,8.40
2015,10,11,06,04,8.40
2015,10,11,06,05,8.40
2015,10,11,06,06,8.40
2015,10,11,06,07,8.40
2015,10,11,06,08,8.40
2015,10,11,06,09,8.30
2015,10,11,06,10,8.30
2015,10,11,06,11,8.30
2015,10,11,06,12,8.30
2015,10,11,06,13,8.30
2015,10,11,06,14,8.30
2015,10,11,06,15,8.30
2015,10,11,06,16,8.30
2015,10,11,06,17,8.30
2015,10,11,06,18,8.40
2015,10,11,06,19,8.40
2015,10,11,06,20,8.40
2015,10,11,06,21,8.40
2015,10,11,06,22,8.40
2015,10,11,06,23,8.40
2015,10,11,06,24,8.40
2015,10,11,06,25,8.40
2015,10,11,06,26,8.40
2015,10,11,06,27,8.30
2015,10,11,06,28,8.30
2015,10,11,06,29,8.30
2015,10,11,06,30,8.30
2015,10,11,06,31,8.30
2015,10,11,06,32,8.30
2015,10,11,06,33,8.30
2015,10,11,06,34,8.30
2015,10,11,06,35,8.30
2015,10,11,06,36,8.20
2015,10,11,06,37,8.20
2015,10,11,06,38,8.20
2015,10,11,06,39,8.20
2015,10,11,06,40,8.20
2015,10,11,06,41,8.20
2015,10,11,06,42,8.20
2015,10,11,06,43,8.20
2015,10,11,06,44,8.20
2015,10,11,06,45,8.20
2015,10,11,06,46,8.20
2015,10,11,06,47,8.20
2015,10,11,06,48,8.20
2015,10,11,06,49,8.20
2015,10,11,06,50,8.20
2015,10,11,06,51,8.20
2015,10,11,06,52,8.20
2015,10,11,06,53,8.20
2015,10,11,06,54,8.20
2015,10,11,06,55,8.10
2015,10,11,06,56,8.10
2015,10,11,06,57,8.10
2015,10,11,06,58,8.10
2015,10,11,06,59,8.10
2015,10,11,07,00,8.10
2015,10,11,07,01,8.10
2015,10,11,07,02,8.10
2015,10,11,07,03,8.10
2015,10,11,07,04,8.10
2015,10,11,07,05,8.10
2015,10,11,07,06,8.10
2015,10,11,07,07,8.10
2015,10,11,07,08,8.10
2015,10,11,07,09,8.10
2015,10,11,07,10,8.10
2015,10,11,07,11,8.10
2015,10,11,07,12,8.10
2015,10,11,07,13,8.10
2015,10,11,07,14,8.10
2015,10,11,07,15,8.10
2015,10,11,07,16,8.10
2015,10,11,07,17,8.10
2015,10,11,07,18,8.10
2015,10,11,07,19,8.10
2015,10,11,07,20,8.00
2015,10,11,07,21,8.00
2015,10,11,07,22,8.00
2015,10,11,07,23,8.00
2015,10,11,07,24,8.00
2015,10,11,07,25,8.00
2015,10,11,07,26,7.90
2015,10,11,07,27,7.90
2015,10,11,07,28,7.90
2015,10,11,07,29,7.90
2015,10,11,07,30,7.90
2015,10,11,07,31,7.90
2015,10,11,07,32,7.90
2015,10,11,07,33,7.90
2015,10,11,07,34,7.90
2015,10,11,07,35,7.90
2015,10,11,07,36,7.90
2015,10,11,07,37,7.90
2015,10,11,07,38,7.90
2015,10,11,07,39,7.90
2015,10,11,07,40,7.90
2015,10,11,07,41,7.90
2015,10,11,07,42,7.90
2015,10,11,07,43,7.80
2015,10,11,07,44,7.80
2015,10,11,07,45,7.80
2015,10,11,07,46,7.80
2015,10,11,07,47,7.80
2015,10,11,07,48,7.80
2015,10,11,07,49,7.80
2015,10,11,07,50,7.80
2015,10,11,07,51,7.80
2015,10,11,07,52,7.90
2015,10,11,07,53,7.90
2015,10,11,07,54,7.90
2015,10,11,07,55,7.90
2015,10,11,07,56,7.90
2015,10,11,07,57,7.90
2015,10,11,07,58,7.90
2015,10,11,07,59,7.90
2015,10,11,08,00,8.00
2015,10,11,08,01,8.00
2015,10,11,08,02,8.00
2015,10,11,08,03,8.00
2015,10,11,08,04,8.10
2015,10,11,08,05,8.10
2015,10,11,08,06,8.10
2015,10,11,08,07,8.10
2015,10,11,08,08,8.10
2015,10,11,08,09,8.10
2015,10,11,08,10,8.20
2015,10,11,08,11,8.20
2015,10,11,08,12,8.20
2015,10,11,08,13,8.20
2015,10,11,08,14,8.20
2015,10,11,08,15,8.20
2015,10,11,08,16,8.20
2015,10,11,08,17,8.20
2015,10,11,08,18,8.20
2015,10,11,08,19,8.20
2015,10,11,08,20,8.20
2015,10,11,08,21,8.20
2015,10,11,08,22,8.20
2015,10,11,08,23,8.30
2015,10,11,08,24,8.30
2015,10,11,08,25,8.30
2015,10,11,08,26,8.30
2015,10,11,08,27,8.30
2015,10,11,08,28,8.30
2015,10,11,08,29,8.30
2015,10,11,08,30,8.40
2015,10,11,08,31,8.40
2015,10,11,08,32,8.40
2015,10,11,08,33,8.40
2015,10,11,08,34,8.40
2015,10,11,08,35,8.50
2015,10,11,08,36,8.50
2015,10,11,08,37,8.50
2015,10,11,08,38,8.50
2015,10,11,08,39,8.60
2015,10,11,08,40,8.60
2015,10,11,08,41,8.60
2015,10,11,08,42,8.60
2015,10,11,08,43,8.60
2015,10,11,08,44,8.70
2015,10,11,08,45,8.70
2015,10,11,08,46,8.70
2015,10,11,08,47,8.70
2015,10,11,08,48,8.70
2015,10,11,08,49,8.70
2015,10,11,08,50,8.70
2015,10,11,08,51,8.70
2015,10,11,08,52,8.70
2015,10,11,08,53,8.80
2015,10,11,08,54,8.80
2015,10,11,08,55,8.80
2015,10,11,08,56,8.80
2015,10,11,08,57,8.80
2015,10,11,08,58,8.80
2015,10,11,08,59,8.80
2015,10,11,09,00,8.80
2015,10,11,09,01,8.80
2015,10,11,09,02,8.80
2015,10,11,09,03,8.80
2015,10,11,09,04,8.80
2015,10,11,09,05,8.80
2015,10,11,09,06,8.80
2015,10,11,09,07,8.90
2015,10,11,09,08,8.90
2015,10,11,09,09,8.90
2015,10,11,09,10,8.90
2015,10,11,09,11,8.90
2015,10,11,09,12,9.00
2015,10,11,09,13,9.00
2015,10,11,09,14,9.10
2015,10,11,09,15,9.10
2015,10,11,09,16,9.10
2015,10,11,09,17,9.20
2015,10,11,09,18,9.20
2015,10,11,09,19,9.20
2015,10,11,09,20,9.30
2015,10,11,09,21,9.30
2015,10,11,09,22,9.30
2015,10,11,09,23,9.40
2015,10,11,09,24,9.40
2015,10,11,09,25,9.40
2015,10,11,09,26,9.50
2015,10,11,09,27,9.50
2015,10,11,09,28,9.60
2015,10,11,09,29,9.60
2015,10,11,09,30,9.60
2015,10,11,09,31,9.60
2015,10,11,09,32,9.70
2015,10,11,09,33,9.70
2015,10,11,09,34,9.70
2015,10,11,09,35,9.80
2015,10,11,09,36,9.80
2015,10,11,09,37,9.80
2015,10,11,09,38,9.80
2015,10,11,09,39,9.90
2015,10,11,09,40,9.90
2015,10,11,09,41,9.90
2015,10,11,09,42,10.00
2015,10,11,09,43,10.00
2015,10,11,09,44,10.10
2015,10,11,09,45,10.10
2015,10,11,09,46,10.10
2015,10,11,09,47,10.20
2015,10,11,09,48,10.20
2015,10,11,09,49,10.20
2015,10,11,09,50,10.30
2015,10,11,09,51,10.30
2015,10,11,09,52,10.30
2015,10,11,09,53,10.30
2015,10,11,09,54,10.30
2015,10,11,09,55,10.30
2015,10,11,09,56,10.40
2015,10,11,09,57,10.40
2015,10,11,09,58,10.40
2015,10,11,09,59,10.40
2015,10,11,10,00,10.50
2015,10,11,10,01,10.50
2015,10,11,10,02,10.50
2015,10,11,10,03,10.60
2015,10,11,10,04,10.60
2015,10,11,10,05,10.60
2015,10,11,10,06,10.70
2015,10,11,10,07,10.70
2015,10,11,10,08,10.70
2015,10,11,10,09,10.80
2015,10,11,10,10,10.80
2015,10,11,10,11,10.80
2015,10,11,10,12,10.80
2015,10,11,10,13,10.90
2015,10,11,10,14,10.90
2015,10,11,10,15,10.90
2015,10,11,10,16,11.00
2015,10,11,10,17,11.00
2015,10,11,10,18,11.10
2015,10,11,10,19,11.10
2015,10,11,10,20,11.10
2015,10,11,10,21,11.10
2015,10,11,10,22,11.20
2015,10,11,10,23,11.20
2015,10,11,10,24,11.20
2015,10,11,10,25,11.20
2015,10,11,10,26,11.20
2015,10,11,10,27,11.30
2015,10,11,10,28,11.30
2015,10,11,10,29,11.30
2015,10,11,10,30,11.30
2015,10,11,10,31,11.30
2015,10,11,10,32,11.30
2015,10,11,10,33,11.30
2015,10,11,10,34,11.30
2015,10,11,10,35,11.40
2015,10,11,10,36,11.40
2015,10,11,10,37,11.40
2015,10,11,10,38,11.50
2015,10,11,10,39,11.50
2015,10,11,10,40,11.60
2015,10,11,10,41,11.60
2015,10,11,10,42,11.70
2015,10,11,10,43,11.70
2015,10,11,10,44,11.80
2015,10,11,10,45,11.80
2015,10,11,10,46,11.80
2015,10,11,10,47,11.90
2015,10,11,10,48,11.90
2015,10,11,10,49,12.00
2015,10,11,10,50,12.10
2015,10,11,10,51,12.10
2015,10,11,10,52,12.20
2015,10,11,10,53,12.20
2015,10,11,10,54,12.30
2015,10,11,10,55,12.30
2015,10,11,10,56,12.30
2015,10,11,10,57,12.40
2015,10,11,10,58,12.50
2015,10,11,10,59,12.50
2015,10,11,11,00,12.60
2015,10,11,11,01,12.60
2015,10,11,11,02,12.70
2015,10,11,11,03,12.70
2015,10,11,11,04,12.80
2015,10,11,11,05,12.80
2015,10,11,11,06,12.90
2015,10,11,11,07,13.00
2015,10,11,11,08,13.00
2015,10,11,11,09,13.10
2015,10,11,11,10,13.20
2015,10,11,11,11,13.20
2015,10,11,11,12,13.30
2015,10,11,11,13,13.30
2015,10,11,11,14,13.40
2015,10,11,11,15,13.40
2015,10,11,11,16,13.40
2015,10,11,11,17,13.50
2015,10,11,11,18,13.50
2015,10,11,11,19,13.60
2015,10,11,11,20,13.60
2015,10,11,11,21,13.60
2015,10,11,11,22,13.70
2015,10,11,11,23,13.70
2015,10,11,11,24,13.70
2015,10,11,11,25,13.80
2015,10,11,11,26,13.80
2015,10,11,11,27,13.80
2015,10,11,11,28,13.90
2015,10,11,11,29,13.90
2015,10,11,11,30,13.90
2015,10,11,11,31,14.00
2015,10,11,11,32,14.00
2015,10,11,11,33,14.00
2015,10,11,11,34,14.10
2015,10,11,11,35,14.10
2015,10,11,11,36,14.10
2015,10,11,11,37,14.10
2015,10,11,11,38,14.20
2015,10,11,11,39,14.20
2015,10,11,11,40,14.20
2015,10,11,11,41,14.20
2015,10,11,11,42,14.30
2015,10,11,11,43,14.30
2015,10,11,11,44,14.30
2015,10,11,11,45,14.40
2015,10,11,11,46,14.40
2015,10,11,11,47,14.40
2015,10,11,11,48,14.40
2015,10,11,11,49,14.50
2015,10,11,11,50,14.50
2015,10,11,11,51,14.60
2015,10,11,11,52,14.60
2015,10,11,11,53,14.70
2015,10,11,11,54,14.70
2015,10,11,11,55,14.80
2015,10,11,11,56,14.80
2015,10,11,11,57,14.90
2015,10,11,11,58,15.00
2015,10,11,11,59,15.00
2015,10,11,12,00,15.00
2015,10,11,12,01,15.00
2015,10,11,12,02,15.00
2015,10,11,12,03,15.00
2015,10,11,12,04,15.00
2015,10,11,12,05,15.00
2015,10,11,12,06,15.10
2015,10,11,12,07,15.10
2015,10,11,12,08,15.10
2015,10,11,12,09,15.20
2015,10,11,12,10,15.20
2015,10,11,12,11,15.20
2015,10,11,12,12,15.20
2015,10,11,12,13,15.30
2015,10,11,12,14,15.30
2015,10,11,12,15,15.30
2015,10,11,12,16,15.30
2015,10,11,12,17,15.30
2015,10,11,12,18,15.30
2015,10,11,12,19,15.30
2015,10,11,12,20,15.40
2015,10,11,12,21,15.40
2015,10,11,12,22,15.40
2015,10,11,12,23,15.40
2015,10,11,12,24,15.40
2015,10,11,12,25,15.40
2015,10,11,12,26,15.40
2015,10,11,12,27,15.40
2015,10,11,12,28,15.40
2015,10,11,12,29,15.40
2015,10,11,12,30,15.40
2015,10,11,12,31,15.40
2015,10,11,12,32,15.40
2015,10,11,12,33,15.40
2015,10,11,12,34,15.40
2015,10,11,12,35,15.40
2015,10,11,12,36,15.40
2015,10,11,12,37,15.40
2015,10,11,12,38,15.40
2015,10,11,12,39,15.40
2015,10,11,12,40,15.40
2015,10,11,12,41,15.40
2015,10,11,12,42,15.40
2015,10,11,12,43,15.50
2015,10,11,12,44,15.50
2015,10,11,12,45,15.50
2015,10,11,12,46,15.50
2015,10,11,12,47,15.50
2015,10,11,12,48,15.50
2015,10,11,12,49,15.50
2015,10,11,12,50,15.50
2015,10,11,12,51,15.50
2015,10,11,12,52,15.50
2015,10,11,12,53,15.40
2015,10,11,12,54,15.40
2015,10,11,12,55,15.40
2015,10,11,12,56,15.40
2015,10,11,12,57,15.40
2015,10,11,12,58,15.40
2015,10,11,12,59,15.40
2015,10,11,13,00,15.40
2015,10,11,13,01,15.40
2015,10,11,13,02,15.40
2015,10,11,13,03,15.40
2015,10,11,13,04,15.40
2015,10,11,13,05,15.40
2015,10,11,13,06,15.40
2015,10,11,13,07,15.40
2015,10,11,13,08,15.40
2015,10,11,13,09,15.40
2015,10,11,13,10,15.30
2015,10,11,13,11,15.30
2015,10,11,13,12,15.30
2015,10,11,13,13,15.30
2015,10,11,13,14,15.30
2015,10,11,13,15,15.30
2015,10,11,13,16,15.30
2015,10,11,13,17,15.30
2015,10,11,13,18,15.20
2015,10,11,13,19,15.20
2015,10,11,13,20,15.20
2015,10,11,13,21,15.20
2015,10,11,13,22,15.20
2015,10,11,13,23,15.20
2015,10,11,13,24,15.20
2015,10,11,13,25,15.20
2015,10,11,13,26,15.20
2015,10,11,13,27,15.10
2015,10,11,13,28,15.10
2015,10,11,13,29,15.00
2015,10,11,13,30,15.00
2015,10,11,13,31,15.00
2015,10,11,13,32,15.00
2015,10,11,13,33,15.00
2015,10,11,13,34,15.00
2015,10,11,13,35,15.00
2015,10,11,13,36,15.00
2015,10,11,13,37,15.00
2015,10,11,13,38,15.00
2015,10,11,13,39,15.10
2015,10,11,13,40,15.10
2015,10,11,13,41,15.10
2015,10,11,13,42,15.20
2015,10,11,13,43,15.20
2015,10,11,13,44,15.20
2015,10,11,13,45,15.20
2015,10,11,13,46,15.30
2015,10,11,13,47,15.30
2015,10,11,13,48,15.30
2015,10,11,13,49,15.30
2015,10,11,13,50,15.40
2015,10,11,13,51,15.40
2015,10,11,13,52,15.50
2015,10,11,13,53,15.50
2015,10,11,13,54,15.50
2015,10,11,13,55,15.60
2015,10,11,13,56,15.60
2015,10,11,13,57,15.60
2015,10,11,13,58,15.60
2015,10,11,13,59,15.60
2015,10,11,14,00,15.50
2015,10,11,14,01,15.50
2015,10,11,14,02,15.40
2015,10,11,14,03,15.30
2015,10,11,14,04,15.30
2015,10,11,14,05,15.30
2015,10,11,14,06,15.20
2015,10,11,14,07,15.20
2015,10,11,14,08,15.10
2015,10,11,14,09,15.10
2015,10,11,14,10,15.10
2015,10,11,14,11,15.00
2015,10,11,14,12,15.00
2015,10,11,14,13,15.00
2015,10,11,14,14,15.00
2015,10,11,14,15,15.00
2015,10,11,14,16,15.00
2015,10,11,14,17,15.00
2015,10,11,14,18,15.00
2015,10,11,14,19,15.00
2015,10,11,14,20,15.00
2015,10,11,14,21,15.00
2015,10,11,14,22,15.00
2015,10,11,14,23,15.00
2015,10,11,14,24,15.00
2015,10,11,14,25,15.00
2015,10,11,14,26,15.00
2015,10,11,14,27,15.00
2015,10,11,14,28,15.00
2015,10,11,14,29,15.00
2015,10,11,14,30,15.00
2015,10,11,14,31,15.00
2015,10,11,14,32,15.00
2015,10,11,14,33,15.00
2015,10,11,14,34,15.00
2015,10,11,14,35,15.00
2015,10,11,14,36,15.00
2015,10,11,14,37,15.00
2015,10,11,14,38,15.00
2015,10,11,14,39,15.00
2015,10,11,14,40,15.00
2015,10,11,14,41,15.00
2015,10,11,14,42,15.00
2015,10,11,14,43,15.00
2015,10,11,14,44,15.00
2015,10,11,14,45,15.00
2015,10,11,14,46,15.00
2015,10,11,14,47,15.00
2015,10,11,14,48,15.00
2015,10,11,14,49,15.00
2015,10,11,14,50,15.00
2015,10,11,14,51,14.90
2015,10,11,14,52,14.90
2015,10,11,14,53,14.80
2015,10,11,14,54,14.80
2015,10,11,14,55,14.80
2015,10,11,14,56,14.70
2015,10,11,14,57,14.70
2015,10,11,14,58,14.70
2015,10,11,14,59,14.60
2015,10,11,15,00,14.60
2015,10,11,15,01,14.60
2015,10,11,15,02,14.60
2015,10,11,15,03,14.60
2015,10,11,15,04,14.50
2015,10,11,15,05,14.50
2015,10,11,15,06,14.50
2015,10,11,15,07,14.50
2015,10,11,15,08,14.50
2015,10,11,15,09,14.50
2015,10,11,15,10,14.50
2015,10,11,15,11,14.40
2015,10,11,15,12,14.40
2015,10,11,15,13,14.40
2015,10,11,15,14,14.30
2015,10,11,15,15,14.30
2015,10,11,15,16,14.30
2015,10,11,15,17,14.30
2015,10,11,15,18,14.30
2015,10,11,15,19,14.20
2015,10,11,15,20,14.20
2015,10,11,15,21,14.20
2015,10,11,15,22,14.20
2015,10,11,15,23,14.20
2015,10,11,15,24,14.20
2015,10,11,15,25,14.20
2015,10,11,15,26,14.20
2015,10,11,15,27,14.20
2015,10,11,15,28,14.10
2015,10,11,15,29,14.10
2015,10,11,15,30,14.10
2015,10,11,15,31,14.10
2015,10,11,15,32,14.10
2015,10,11,15,33,14.10
2015,10,11,15,34,14.10
2015,10,11,15,35,14.10
2015,10,11,15,36,14.20
2015,10,11,15,37,14.20
2015,10,11,15,38,14.20
2015,10,11,15,39,14.20
2015,10,11,15,40,14.20
2015,10,11,15,41,14.20
2015,10,11,15,42,14.20
2015,10,11,15,43,14.20
2015,10,11,15,44,14.20
2015,10,11,15,45,14.20
2015,10,11,15,46,14.20
2015,10,11,15,47,14.20
2015,10,11,15,48,14.20
2015,10,11,15,49,14.30
2015,10,11,15,50,14.30
2015,10,11,15,51,14.30
2015,10,11,15,52,14.30
2015,10,11,15,53,14.30
2015,10,11,15,54,14.30
2015,10,11,15,55,14.30
2015,10,11,15,56,14.30
2015,10,11,15,57,14.40
2015,10,11,15,58,14.40
2015,10,11,15,59,14.40
2015,10,11,16,00,14.40
2015,10,11,16,01,14.40
2015,10,11,16,02,14.40
2015,10,11,16,03,14.40
2015,10,11,16,04,14.40
2015,10,11,16,05,14.40
2015,10,11,16,06,14.40
2015,10,11,16,07,14.40
2015,10,11,16,08,14.40
2015,10,11,16,09,14.40
2015,10,11,16,10,14.40
2015,10,11,16,11,14.40
2015,10,11,16,12,14.40
2015,10,11,16,13,14.40
2015,10,11,16,14,14.40
2015,10,11,16,15,14.40
2015,10,11,16,16,14.40
2015,10,11,16,17,14.30
2015,10,11,16,18,14.30
2015,10,11,16,19,14.30
2015,10,11,16,20,14.30
2015,10,11,16,21,14.30
2015,10,11,16,22,14.30
2015,10,11,16,23,14.30
2015,10,11,16,24,14.20
2015,10,11,16,25,14.20
2015,10,11,16,26,14.20
2015,10,11,16,27,14.20
2015,10,11,16,28,14.20
2015,10,11,16,29,14.20
2015,10,11,16,30,14.20
2015,10,11,16,31,14.20
2015,10,11,16,32,14.20
2015,10,11,16,33,14.10
2015,10,11,16,34,14.10
2015,10,11,16,35,14.10
2015,10,11,16,36,14.10
2015,10,11,16,37,14.10
2015,10,11,16,38,14.10
2015,10,11,16,39,14.10
2015,10,11,16,40,14.10
2015,10,11,16,41,14.10
2015,10,11,16,42,14.10
2015,10,11,16,43,14.10
2015,10,11,16,44,14.10
2015,10,11,16,45,14.10
2015,10,11,16,46,14.10
2015,10,11,16,47,14.10
2015,10,11,16,48,14.10
2015,10,11,16,49,14.10
2015,10,11,16,50,14.10
2015,10,11,16,51,14.10
2015,10,11,16,52,14.10
2015,10,11,16,53,14.10
2015,10,11,16,54,14.10
2015,10,11,16,55,14.10
2015,10,11,16,56,14.10
2015,10,11,16,57,14.10
2015,10,11,16,58,14.10
2015,10,11,16,59,14.10
2015,10,11,17,00,14.10
2015,10,11,17,01,14.10
2015,10,11,17,02,14.10
2015,10,11,17,03,14.10
2015,10,11,17,04,14.10
2015,10,11,17,05,14.10
2015,10,11,17,06,14.10
2015,10,11,17,07,14.10
2015,10,11,17,08,14.10
2015,10,11,17,09,14.10
2015,10,11,17,10,14.10
2015,10,11,17,11,14.10
2015,10,11,17,12,14.10
2015,10,11,17,13,14.10
2015,10,11,17,14,14.10
2015,10,11,17,15,14.10
2015,10,11,17,16,14.00
2015,10,11,17,17,14.00
2015,10,11,17,18,14.00
2015,10,11,17,19,13.90
2015,10,11,17,20,13.90
2015,10,11,17,21,13.90
2015,10,11,17,22,13.90
2015,10,11,17,23,13.80
2015,10,11,17,24,13.80
2015,10,11,17,25,13.80
2015,10,11,17,26,13.80
2015,10,11,17,27,13.80
2015,10,11,17,28,13.80
2015,10,11,17,29,13.80
2015,10,11,17,30,13.80
2015,10,11,17,31,13.80
2015,10,11,17,32,13.70
2015,10,11,17,33,13.70
2015,10,11,17,34,13.70
2015,10,11,17,35,13.70
2015,10,11,17,36,13.60
2015,10,11,17,37,13.60